This demonstration page uses our WeatherBlox Daily Observations layout. Learn more.

Left ArrowRight Arrow

34.74481, -87.66753

Hourly Observations for October 30, 2019

Temp ( °F °C ) Dew Point ( °F °C ) Humidity (%) Winds ( mph kmh ) Pressure ( in mb ) Visibility ( mi km ) Precip ( " mm )
12:53 am 00:53 Cloudy 59 15 56 13.3 90 90 SE 5 7 30.04 1017 10 16 0.00 0.00
1:53 am 01:53 Cloudy 61 16.1 57 13.9 87 87 SE 7 11 30.02 1017 10 16 0.00 0.00
2:53 am 02:53 Cloudy 62 16.7 58 14.4 86 86 Calm 30.01 1016 10 16 0.00 0.00
3:14 am 03:14 Cloudy 62 16.7 58 14.4 86 86 Calm 30.02 1017 10 16 0.00 0.00
3:53 am 03:53 Cloudy with Light Rain 62 16.7 59 15 90 90 E 3 6 30.00 1016 9 14 0.00 0.00
4:36 am 04:36 Cloudy with Heavy Rain 62 16.7 59 15 90 90 Calm 30.01 1016 2 2 0.14 3.56
4:48 am 04:48 Cloudy with Light Rain 63 17 59 15 88 88 E 5 7 30.01 1016 3 5 0.22 5.59
4:53 am 04:53 Cloudy with Light Rain 62 16.7 59 15 90 90 E 6 9 30.00 1016 5 8 0.22 5.59
5:53 am 05:53 Cloudy with Mist and Fog 63 17.2 61 16.1 93 93 NNE 6 9 29.99 1016 5 8 0.01 0.25
6:24 am 06:24 Cloudy with Mist and Fog 64 17.8 62 16.7 93 93 NNE 6 9 29.99 1016 4 6 0.00 0.00
6:53 am 06:53 Cloudy with Heavy Rain 65 18.3 63 17.2 93 93 NE 8 13 29.96 1015 4 6 0.06 1.52
7:04 am 07:04 Cloudy with Heavy Rain 65 18.3 63 17.2 93 93 E 9 15 29.96 1015 4 6 0.04 1.02
7:25 am 07:25 Cloudy with Heavy Rain 66 18.9 64 17.8 93 93 E 7 11 29.97 1015 3 5 0.16 4.06
7:32 am 07:32 Cloudy with Heavy Rain 66 18.9 65 18.3 96 96 Calm 29.98 1015 4 6 0.19 4.83
7:41 am 07:41 Cloudy with Heavy Rain 66 18.9 65 18.3 96 96 Calm 29.97 1015 3 4 0.26 6.60
7:53 am 07:53 Cloudy with Heavy Rain 66 18.9 64 17.8 93 93 E 7 11 29.95 1014 3 5 0.33 8.38
8:10 am 08:10 Cloudy with Heavy Rain 67 19.4 66 18.9 97 97 E 5 7 29.98 1015 5 8 0.08 2.03
8:53 am 08:53 Cloudy with Heavy Rain 68 20 66 18.9 93 93 ESE 12 19 29.94 1014 4 6 0.28 7.11
9:06 am 09:06 Cloudy with Heavy Rain 68 20 66 18.9 93 93 SE 16 26 29.94 1014 4 6 0.08 2.03
9:53 am 09:53 Mostly Cloudy with Rain 70 21.1 67 19.4 90 90 SSE 23 37 29.90 1013 4 6 0.32 8.13
10:36 am 10:36 Cloudy with Light Rain 71 21.7 66 18.9 84 84 SSW 12 19 29.93 1014 10 16 0.08 2.03
10:43 am 10:43 Cloudy 70 21.1 65 18.3 84 84 SSW 8 13 29.94 1014 10 16 0.08 2.03
10:53 am 10:53 Cloudy 70 21.1 65 18.3 84 84 S 10 17 29.94 1014 10 16 0.08 2.03
11:02 am 11:02 Cloudy 70 21.1 65 18.3 84 84 SSE 12 19 29.94 1014 10 16 0.00 0.00
11:32 am 11:32 Cloudy with Heavy Rain 69 20.6 66 18.9 90 90 ESE 7 11 29.93 1013 2 3 0.07 1.78
11:41 am 11:41 Cloudy with Light Rain 69 20.6 66 18.9 90 90 E 7 11 29.92 1013 3 5 0.08 2.03
11:53 am 11:53 Cloudy 68 20 66 18.9 93 93 E 6 9 29.90 1013 10 16 0.09 2.29
12:07 pm 12:07 Cloudy 70 21.1 67 19.4 90 90 ESE 7 11 29.89 1012 10 16 0.00 0.00
12:53 pm 12:53 Cloudy with Mist and Fog 71 21.7 68 20 90 90 S 9 15 29.87 1011 6 10 0.00 0.00
1:53 pm 13:53 Cloudy 73 22.8 69 20.6 87 87 SW 14 22 29.86 1011 10 16 0.00 0.00
2:39 pm 14:39 Cloudy with Rain 70 21.1 67 19.4 90 90 WNW 18 30 29.89 1012 3 4 0.01 0.25
2:46 pm 14:46 Cloudy with Light Rain 69 20.6 66 18.9 90 90 NW 13 20 29.89 1012 3 5 0.01 0.25
2:53 pm 14:53 Cloudy 69 20.6 65 18.3 87 87 NW 8 13 29.88 1012 9 14 0.01 0.25
3:03 pm 15:03 Cloudy 69 20.6 65 18.3 87 87 WNW 7 11 29.88 1012 10 16 0.00 0.00
3:25 pm 15:25 Cloudy 70 21.1 64 17.8 82 82 Calm 29.86 1011 10 16 0.00 0.00
3:53 pm 15:53 Cloudy 70 21.1 66 18.9 87 87 SSW 7 11 29.87 1012 10 16 0.00 0.00
4:53 pm 16:53 Mostly Cloudy 71 21.7 66 18.9 84 84 W 5 7 29.89 1012 10 16 0.00 0.00
5:53 pm 17:53 Mostly Sunny 69 20.6 66 18.9 90 90 Calm 29.88 1012 10 16 0.00 0.00
6:18 pm 18:18 Mostly Cloudy 68 20 66 18.9 93 93 Calm 29.90 1012 10 16 0.00 0.00
6:53 pm 18:53 Cloudy 69 20.6 66 18.9 90 90 Calm 29.91 1013 10 16 0.00 0.00
7:29 pm 19:29 Cloudy with Mist and Fog 69 20.6 67 19.4 93 93 Calm 29.91 1013 4 6 0.00 0.00
7:53 pm 19:53 Cloudy 69 20.6 67 19.4 93 93 Calm 29.90 1012 7 11 0.00 0.00
8:53 pm 20:53 Cloudy with Mist and Fog 68 20 66 18.9 93 93 SE 3 6 29.88 1012 6 10 0.00 0.00
11:09 pm 23:09 Cloudy 69 20.6 67 19.4 93 93 Calm 29.87 1011 10 16 0.00 0.00

Powered by AerisWeather